Overview Statistics Trail Chart Weather Telemetry Raw packets
 

This is the latest recevied weather packets stored in our database for station/object SM0UQT-10. If no packets are shown the sender has not sent any weather packets the latest 10 day(s).

<< 15 16 17 18 19 20 21 >>
Time Temp. Humidity Pressure Rain* Wind** Luminosity Snow
1788280733 18.89° C 62% 997.6 hPa - - - -
1788279823 19.44° C 63% 997.6 hPa - - - -
1788278922 19.44° C 63% 997.5 hPa - - - -
1788278022 19.44° C 63% 997.4 hPa - - - -
1788277122 19.44° C 63% 997.4 hPa - - - -
1788276222 18.33° C 63% 997.2 hPa - - - -
1788275322 17.78° C 61% 997.4 hPa - - - -
1788274422 17.78° C 62% 997.3 hPa - - - -
1788273522 17.78° C 62% 997.6 hPa - - - -
1788272622 17.78° C 62% 997.5 hPa - - - -
1788271722 18.33° C 62% 997.5 hPa - - - -
1788270822 19.44° C 61% 997.4 hPa - - - -
1788269922 20° C 62% 997.3 hPa - - - -
1788269021 21.11° C 62% 997.4 hPa - - - -
1788268121 21.67° C 63% 997.4 hPa - - - -
1788267221 20.56° C 62% 997.4 hPa - - - -
1788266321 19.44° C 63% 997.4 hPa - - - -
1788265421 19.44° C 62% 997.4 hPa - - - -
1788264521 19.44° C 63% 997.3 hPa - - - -
1788263621 18.89° C 64% 997.2 hPa - - - -
1788262721 21.11° C 63% 997.4 hPa - - - -
1788261821 22.22° C 65% 997.2 hPa - - - -
1788260921 21.11° C 63% 997.2 hPa - - - -
1788260021 21.11° C 63% 997.2 hPa - - - -
1788259120 20.56° C 63% 997.1 hPa - - - -

* Rain since midnight (hover to see other rain measurements)
** Current wind speed in m/s (hover to see current wind gust speed)